This is the latest recevied weather packets stored in our database for station/object N2PPN. If no packets are shown the sender has not sent any weather packets the latest 10 day(s).
| Time | Temp. | Humidity | Pressure | Rain* | Wind** | Luminosity | Snow |
|---|---|---|---|---|---|---|---|
| 1777382912 | 15.56° C | 52% | 1025.2 hPa | 0 mm | - | 434 W/m² | - |
| 1777382608 | 15° C | 51% | 1025.1 hPa | 0 mm | - | 440 W/m² | - |
| 1777382303 | 16.11° C | 51% | 1024.9 hPa | 0 mm | - | 422 W/m² | - |
| 1777382000 | 15.56° C | 52% | 1025.1 hPa | 0 mm | - | 405 W/m² | - |
| 1777381700 | 15.56° C | 54% | 1024.9 hPa | 0 mm | - | 393 W/m² | - |
| 1777381396 | 15° C | 53% | 1024.9 hPa | 0 mm | - | 375 W/m² | - |
| 1777381093 | 15° C | 54% | 1024.9 hPa | 0 mm | - | 361 W/m² | - |
| 1777380789 | 15° C | 53% | 1025 hPa | 0 mm | - | 347 W/m² | - |
| 1777380486 | 15° C | 55% | 1025.2 hPa | 0 mm | - | 334 W/m² | - |
| 1777380182 | 13.89° C | 57% | 1025 hPa | 0 mm | - | 266 W/m² | - |
| 1777379879 | 15° C | 55% | 1025 hPa | 0 mm | - | 294 W/m² | - |
| 1777379574 | 13.89° C | 60% | 1025.2 hPa | 0 mm | - | 284 W/m² | - |
| 1777379270 | 13.89° C | 59% | 1025.1 hPa | 0 mm | - | 269 W/m² | - |
| 1777378965 | 13.33° C | 57% | 1025.3 hPa | 0 mm | - | 252 W/m² | - |
| 1777378660 | 13.89° C | 62% | 1025.1 hPa | 0 mm | - | 238 W/m² | - |
| 1777378358 | 13.33° C | 66% | 1025 hPa | 0 mm | - | 224 W/m² | - |
| 1777378057 | 13.33° C | 66% | 1025.2 hPa | 0 mm | - | 208 W/m² | - |
| 1777377752 | 13.33° C | 66% | 1025.4 hPa | 0 mm | - | 193 W/m² | - |
| 1777377447 | 13.33° C | 65% | 1025.3 hPa | 0 mm | - | 178 W/m² | - |
| 1777377143 | 13.33° C | 65% | 1025.2 hPa | 0 mm | - | 165 W/m² | - |
| 1777376840 | 12.78° C | 66% | 1025.5 hPa | 0 mm | - | 152 W/m² | - |
| 1777376537 | 12.22° C | 69% | 1025.5 hPa | 0 mm | - | 139 W/m² | - |
| 1777376233 | 11.67° C | 69% | 1025.3 hPa | 0 mm | - | 126 W/m² | - |
| 1777375928 | 11.11° C | 73% | 1025.2 hPa | 0 mm | - | 114 W/m² | - |
| 1777375622 | 10.56° C | 74% | 1025.2 hPa | 0 mm | - | 94 W/m² | - |
* Rain latest hour (hover to see other rain measurements)
** Current wind speed in m/s (hover to see current wind gust speed)